Showing default

HAWK-14C, 68441

Orbit data source: Space-Track

HAWK-14C, 68441 is a payload satellite owned by HawkEye 360 (US) in SSO that was launched on Mon, 30 Mar 2026 UTC via an FALCON 9 launch vehicle from the Air Force Western Test Range (AFWTR). Payload-class satellites include a variety of spacecraft equipped with specific instruments for various scientific and technological missions. These include communications satellites like Starlink; space stations such as the ISS; scientific satellites like the Hubble; Earth observation satellites from companies like Planet Labs, Umbra, and HawkEye 360; GPS; miniature CubeSats for education and research; and military/defense satellites.

Loading next visibility...
Identifier
68441, 2026-067AB
Orbit
SSO
Country
Flag of USUS
Related business
Manufacturer
UTIAS-SFL
Mission
Operational spacecraft
Bus & Motor
HAWK2G, Unknown motor
Mass
31 kg wet, 30 kg dry
Launch date (UTC)
2026-03-30 (1 month ago)
Launch vehicle
FALCON 9
Launch site
Air Force Western Test Range (AFWTR)
Object type
Payload
Rocket body
Debris
Shape & HBR
Unknown shape, 14.5 m
Radar Cross Section
RCS unknown

Expand to show TLE details & history
Last TLE update: 1 day ago

TLE from 1 day ago
0 HAWK-14C
1 68441U 26067AB  26126.75398757  .00005950  00000-0  29678-3 0  9996
2 68441  97.4363  85.7605 0002026 167.5922 192.5363 15.17893430  5656
Epoch: 2026-05-06T18:05Z
TLE epoch observation values (Epoch: 2026-05-06T18:05:44.526Z)
Latitude
0.00009°
Longitude
-50.28498°
Altitude
516.658 km
Speed
7.604 km/s
True Right ascension
05h 43m 02s
True Declination
0° 00' 00"
Sunlit
Object was in daylight at epoch
Visualization orbit readout
Latitude
Unknown
Longitude
Unknown
Altitude
Unknown
Speed
Unknown
Apparent Right ascension
Unknown
Apparent Declination
Unknown
Sunlit
N/A
Visualization observer readout
Local Sidereal Time
01:57:30
Azimuth
Unknown
Elevation
Unknown
Doppler factor
Unknown
Orbital elements
Apogee altitude
510.574 km
Perigee altitude
507.783 km
Semi-major axis
6,887.315 km
Eccentricity
0.0002
Inclination
97.4363°
RAAN
85.7605°
Arg. of periapsis
167.5922°
True anomaly
192.53126°
Mean anomaly
192.5363°
Eccentric anomaly
192.53378°
Mean motion
3.79724 °/min
Orbital period
94.81 mins
BSTAR
0.00029678
Loading maneuver chart data...
Computing Atmospheric mass density...
Loading historical data...
Loading historical data...
Loading historical data...
Loading historical data...
Loading historical data...
Loading historical data...
Loading historical data...

Documentation

Showing up to 5 results
|